Weather History for KMHE - December, 2012

Change the Weather History Date:

Friday, December 7, 2012

  Actual Average Record
Temperature  
Mean Temperature 31 °F 23 °F  
Max Temperature 33 °F 32 °F 58 °F (1965)
Min Temperature 29 °F 14 °F -18 °F (2013)
Degree Days  
Heating Degree Days 34 42  
Month to date heating degree days 171 287  
Since 1 July heating degree days 1697 1855  
Cooling Degree Days 0 0  
Month to date cooling degree days 0 0  
Year to date cooling degree days 1236 824  
Moisture  
Dew Point 27 °F    
Average Humidity 78    
Maximum Humidity 92    
Minimum Humidity 64    
Precipitation  
Precipitation 0.11 in 0.02 in 0.31 in (1927)
Month to date precipitation 0.11 0.17  
Year to date precipitation 21.27 21.24  
Snow  
Snow 0.90 in - 3.00 in (1927)
Month to date snowfall 0.9  
Since 1 July snowfall 1.6  
Snow Depth 0.00 in    
Sea Level Pressure  
Sea Level Pressure 30.00 in    
Wind  
Wind Speed 6 mph (East)    
Max Wind Speed 18 mph    
Max Gust Speed 22 mph    
Visibility 5 miles    
Events Fog , Snow    
T = Trace of Precipitation, MM = Missing Value Source: NWS Daily Summary

Daily Weather History Graph

Daily Weather History Graph

Search for Another Location

Airport or City:

Trip Planner

Search our weather history database for the weather conditions in past years. The results will help you decide how hot, cold, wet, or windy it might be!

Date:

Astronomy

Dec. 07, 2012 Rise Set
Actual Time 7:52 AM CST 4:54 PM CST
Civil Twilight 7:20 AM CST 5:27 PM CST
Nautical Twilight 6:44 AM CST 6:03 PM CST
Astronomical Twilight 6:09 AM CST 6:38 PM CST
Moon 1:02 AM CST (12/7) 1:02 PM CST (12/7)
Length of Visible Light 10h 07m
Length of Day
9h 01m
Last Quarter, 38% of the Moon is Illuminated
Dec 7
Last Quarter
Dec 13
New
Dec 19
First Quarter
Dec 28
Full
Jan 4
Last Quarter

Hourly Weather History & Observations

Time (CST) Temp. Windchill Dew Point Humidity Pressure Visibility Wind Dir Wind Speed Gust Speed Precip Events Conditions
12:53 AM 32.0 °F - 23.0 °F 69% 30.04 in 10.0 mi Calm Calm - N/A   Mostly Cloudy
1:53 AM 30.9 °F - 23.0 °F 72% 30.04 in 10.0 mi Calm Calm - N/A   Overcast
2:53 AM 30.0 °F 26.5 °F 23.0 °F 75% 30.04 in 10.0 mi East 3.5 mph - N/A   Overcast
3:53 AM 32.0 °F 26.4 °F 24.1 °F 73% 30.01 in 10.0 mi ESE 5.8 mph - N/A   Overcast
4:53 AM 32.0 °F 26.4 °F 25.0 °F 75% 30.02 in 10.0 mi South 5.8 mph - N/A   Overcast
5:53 AM 33.1 °F 30.0 °F 25.0 °F 72% 30.01 in 10.0 mi SE 3.5 mph - N/A   Overcast
6:53 AM 32.0 °F 28.7 °F 24.1 °F 73% 30.00 in 10.0 mi North 3.5 mph - N/A   Overcast
7:53 AM 32.0 °F 26.4 °F 23.0 °F 69% 30.02 in 10.0 mi ENE 5.8 mph - N/A   Overcast
8:53 AM 33.1 °F 25.5 °F 23.0 °F 66% 30.02 in 10.0 mi ENE 9.2 mph - N/A   Overcast
9:40 AM 32.0 °F 21.6 °F 24.8 °F 75% 29.98 in 2.5 mi East 15.0 mph - 0.00 in Snow Light Snow
9:51 AM 30.2 °F 19.3 °F 24.8 °F 80% 29.98 in 1.8 mi ENE 15.0 mph - 0.00 in Snow Light Snow
9:53 AM 30.9 °F 20.2 °F 25.0 °F 79% 30.03 in 1.8 mi ENE 15.0 mph - 0.00 in Snow Light Snow
10:21 AM 30.2 °F 20.8 °F 26.6 °F 86% 29.98 in 2.5 mi East 11.5 mph - 0.00 in Snow Light Snow
10:25 AM 30.2 °F 19.8 °F 26.6 °F 86% 29.99 in 3.0 mi East 13.8 mph - 0.00 in Snow Light Snow
10:43 AM 30.2 °F 20.8 °F 26.6 °F 86% 29.99 in 2.5 mi ESE 11.5 mph - 0.00 in Snow Light Snow
10:47 AM 30.2 °F 21.9 °F 26.6 °F 86% 29.99 in 1.8 mi ESE 9.2 mph - 0.00 in Snow Light Snow
10:53 AM 30.9 °F 22.2 °F 28.0 °F 89% 30.04 in 1.0 mi ESE 10.4 mph - 0.00 in Snow Light Snow
11:24 AM 30.2 °F 21.3 °F 26.6 °F 86% 29.98 in 0.8 mi East 10.4 mph - 0.00 in Snow Light Snow
11:34 AM 30.2 °F 21.3 °F 28.4 °F 93% 29.97 in 1.0 mi East 10.4 mph - 0.00 in Snow Light Snow
11:46 AM 30.2 °F 20.8 °F 28.4 °F 93% 29.97 in 0.5 mi East 11.5 mph - 0.00 in Fog , Snow Snow
11:53 AM 30.9 °F 22.2 °F 28.0 °F 89% 30.01 in 0.5 mi East 10.4 mph - 0.00 in Fog , Snow Snow
12:49 PM 30.2 °F 20.8 °F 28.4 °F 93% 29.96 in 1.2 mi ESE 11.5 mph - 0.01 in Snow Light Snow
12:53 PM 30.9 °F 22.2 °F 28.0 °F 89% 30.00 in 1.5 mi ESE 10.4 mph - 0.01 in Snow Light Snow
1:41 PM 30.2 °F 20.8 °F 28.4 °F 93% 29.95 in 1.8 mi East 11.5 mph - 0.00 in Snow Light Snow
1:53 PM 30.9 °F 22.2 °F 28.0 °F 89% 29.99 in 2.0 mi East 10.4 mph - 0.00 in Snow Light Snow
2:22 PM 30.2 °F 21.9 °F 28.4 °F 93% 29.94 in 2.5 mi East 9.2 mph - 0.00 in Snow Light Snow
2:43 PM 30.2 °F 21.3 °F 28.4 °F 93% 29.95 in 3.0 mi East 10.4 mph - 0.00 in Snow Light Snow
2:53 PM 30.9 °F 22.8 °F 28.0 °F 89% 30.00 in 3.0 mi East 9.2 mph - 0.00 in Snow Light Snow
3:21 PM 30.2 °F 22.6 °F 28.4 °F 93% 29.95 in 6.0 mi ESE 8.1 mph - 0.00 in Snow Light Snow
3:36 PM 30.2 °F 22.6 °F 26.6 °F 86% 29.95 in 9.0 mi SE 8.1 mph - 0.00 in Snow Light Snow
3:43 PM 30.2 °F 21.9 °F 28.4 °F 93% 29.95 in 7.0 mi SE 9.2 mph - 0.00 in Snow Light Snow
3:53 PM 30.9 °F 22.8 °F 27.0 °F 85% 30.00 in 5.0 mi SE 9.2 mph - 0.00 in Snow Light Snow
4:53 PM 30.9 °F 25.2 °F 27.0 °F 85% 30.01 in 5.0 mi East 5.8 mph - 0.00 in Snow Light Snow
5:53 PM 30.0 °F 25.2 °F 27.0 °F 88% 30.03 in 7.0 mi NE 4.6 mph - 0.00 in   Overcast
6:16 PM 30.2 °F 26.7 °F 28.4 °F 93% 29.99 in 3.0 mi NE 3.5 mph - 0.00 in Snow Light Snow
6:24 PM 30.2 °F 24.3 °F 28.4 °F 93% 30.00 in 4.0 mi NE 5.8 mph - 0.00 in Snow Light Snow
7:53 PM 30.0 °F 26.5 °F 27.0 °F 88% 30.06 in 8.0 mi NNE 3.5 mph - 0.00 in   Overcast
8:53 PM 28.9 °F 25.2 °F 27.0 °F 92% 30.06 in 8.0 mi ENE 3.5 mph - N/A   Overcast
9:53 PM 30.0 °F - 27.0 °F 88% 30.06 in 9.0 mi Calm Calm - N/A   Overcast
10:53 PM 28.9 °F - 27.0 °F 92% 30.06 in 9.0 mi Calm Calm - N/A   Overcast
11:53 PM 28.9 °F - 27.0 °F 92% 30.07 in 8.0 mi Calm Calm - N/A   Overcast